This demonstration page uses our WeatherBlox Daily Observations layout. Learn more.

Left ArrowRight Arrow

38.20091, -84.87328

Hourly Observations for May 15, 2020

Temp ( °F °C ) Dew Point ( °F °C ) Humidity (%) Winds ( mph kmh ) Pressure ( in mb ) Visibility ( mi km ) Precip ( " mm )
12:53 am 00:53 Clear 72 22.2 55 12.8 55 55 S 15 24 29.97 1015 10 16 0.00 0.00
1:53 am 01:53 Clear 71 21.7 56 13.3 59 59 SSW 12 19 29.97 1015 10 16 0.00 0.00
2:53 am 02:53 Clear 70 21.1 56 13.3 61 61 S 13 20 29.96 1015 10 16 0.00 0.00
3:53 am 03:53 Mostly Cloudy 70 21.1 56 13.3 61 61 SSW 13 20 29.97 1015 10 16 0.00 0.00
4:53 am 04:53 Mostly Clear 69 20.6 56 13.3 63 63 SSW 15 24 29.96 1015 10 16 0.00 0.00
5:53 am 05:53 Mostly Cloudy 69 20.6 55 12.8 61 61 SSW 10 17 29.97 1015 10 16 0.00 0.00
6:53 am 06:53 Mostly Cloudy 68 20 56 13.3 65 65 SSW 8 13 29.98 1015 10 16 0.00 0.00
7:53 am 07:53 Cloudy 69 20.6 56 13.3 63 63 S 10 17 29.99 1016 10 16 0.00 0.00
8:53 am 08:53 Cloudy 71 21.7 56 13.3 59 59 SSW 13 20 29.98 1015 10 16 0.00 0.00
9:53 am 09:53 Cloudy 72 22.2 57 13.9 59 59 SSW 16 26 30.00 1016 10 16 0.00 0.00
10:53 am 10:53 Cloudy 72 22.2 57 13.9 59 59 SW 18 30 30.01 1016 10 16 0.00 0.00
11:53 am 11:53 Mostly Cloudy 72 22.2 60 15.6 66 66 SW 12 19 30.01 1016 10 16 0.00 0.00
12:53 pm 12:53 Mostly Cloudy 74 23.3 61 16.1 64 64 SW 17 28 29.99 1016 10 16 0.00 0.00
1:53 pm 13:53 Cloudy 76 24.4 60 15.6 58 58 SSW 16 26 29.97 1015 10 16 0.00 0.00
2:53 pm 14:53 Partly Cloudy 78 25.6 60 15.6 54 54 SW 18 30 29.96 1014 10 16 0.00 0.00
3:53 pm 15:53 Cloudy with Light Rain 76 24.4 61 16.1 60 60 SW 12 19 29.96 1015 10 16 0.00 0.00
4:53 pm 16:53 Cloudy 75 23.9 64 17.8 69 69 S 7 11 29.95 1014 10 16 0.02 0.51
5:53 pm 17:53 Cloudy 76 24.4 63 17.2 64 64 SW 6 9 29.94 1014 10 16 0.00 0.00
6:53 pm 18:53 Mostly Cloudy 76 24.4 63 17.2 64 64 Calm 29.94 1014 10 16 0.00 0.00
7:12 pm 19:12 Mostly Cloudy with Nearby Thunderstorms 77 25 62 16.7 60 60 Calm 29.93 1013 10 16 0.00 0.00
7:20 pm 19:20 Cloudy with Nearby Thunderstorms 71 21.7 63 17.2 76 76 NW 10 17 29.96 1014 2 2 0.08 2.03
7:23 pm 19:23 Cloudy with Heavy Rain 69 20.6 63 17.2 81 81 NNW 13 20 29.96 1015 1 2 0.15 3.81
7:32 pm 19:32 Cloudy with Light Rain 68 20 63 17.2 84 84 NW 7 11 29.95 1014 3 4 0.18 4.57
7:39 pm 19:39 Cloudy with Light Rain 69 20.6 64 17.8 84 84 NW 6 9 29.95 1014 9 14 0.18 4.57
7:53 pm 19:53 Cloudy with Nearby Thunderstorms 68 20 64 17.8 87 87 NNW 3 6 29.96 1015 4 6 0.20 5.08
8:07 pm 20:07 Cloudy 69 20.6 65 18.3 87 87 Calm 29.96 1015 10 16 0.00 0.00
8:53 pm 20:53 Cloudy 68 20 65 18.3 90 90 W 5 7 29.98 1015 9 14 0.00 0.00
9:01 pm 21:01 Cloudy with Heavy Rain 68 20 65 18.3 90 90 VRB 5 7 29.98 1015 2 3 0.10 2.54
9:15 pm 21:15 Cloudy with Rain 68 20 65 18.3 90 90 N 3 6 29.97 1015 3 5 0.17 4.32
9:53 pm 21:53 Cloudy 68 20 65 18.3 90 90 Calm 29.98 1015 10 16 0.18 4.57
10:53 pm 22:53 Cloudy with Mist and Fog 67 19.4 65 18.3 93 93 NNW 3 6 29.99 1016 5 8 0.00 0.00
11:53 pm 23:53 Cloudy 67 19.4 64 17.8 91 91 Calm 29.99 1016 9 14 0.00 0.00

Powered by AerisWeather